Time,TemperatureF,DewpointF,PressureIn,WindDirection,WindDirectionDegrees,WindSpeedMPH,WindSpeedGustMPH,Humidity,HourlyPrecipIn,Conditions,Clouds,dailyrainin,SolarRadiationWatts/m^2,SoftwareType,DateUTC
2013-11-26 00:12:00,7.0,3.0,-100.00,North,4,6.0,8.0,82,0.00,,,0.15,0.000000,,2013-11-26 07:12:00,
2013-11-26 00:21:00,7.0,3.0,-100.00,North,4,6.0,8.0,82,0.00,,,0.15,0.000000,,2013-11-26 07:21:00,
2013-11-26 00:32:00,7.0,3.0,-100.00,North,4,6.0,8.0,82,0.00,,,0.15,0.000000,,2013-11-26 07:32:00,
2013-11-26 01:11:00,7.0,3.0,-100.00,NNW,347,3.0,9.0,83,0.00,,,0.15,0.000000,,2013-11-26 08:11:00,
2013-11-26 01:22:00,7.0,3.0,-100.00,NNW,347,3.0,9.0,83,0.00,,,0.15,0.000000,,2013-11-26 08:22:00,
2013-11-26 01:32:00,7.0,3.0,-100.00,NNW,347,3.0,9.0,83,0.00,,,0.15,0.000000,,2013-11-26 08:32:00,
2013-11-26 02:11:00,5.0,0.0,-100.00,North,358,5.0,8.0,81,0.00,,,0.15,0.000000,,2013-11-26 09:11:00,
2013-11-26 02:21:00,5.0,0.0,-100.00,North,358,5.0,8.0,81,0.00,,,0.15,0.000000,,2013-11-26 09:21:00,
2013-11-26 02:33:00,5.0,0.0,-100.00,North,358,5.0,8.0,81,0.00,,,0.15,0.000000,,2013-11-26 09:33:00,
2013-11-26 03:12:00,5.0,1.0,-100.00,NNW,329,3.0,9.0,82,0.00,,,0.15,0.000000,,2013-11-26 10:12:00,
2013-11-26 03:23:00,5.0,1.0,-100.00,NNW,329,3.0,9.0,82,0.00,,,0.15,0.000000,,2013-11-26 10:23:00,
2013-11-26 03:33:00,5.0,1.0,-100.00,NNW,329,3.0,9.0,82,0.00,,,0.15,0.000000,,2013-11-26 10:33:00,
2013-11-26 04:12:00,12.0,8.0,-100.00,NNE,13,6.0,9.0,83,0.00,,,0.15,0.000000,,2013-11-26 11:12:00,
2013-11-26 04:23:00,12.0,8.0,-100.00,NNE,13,6.0,9.0,83,0.00,,,0.15,0.000000,,2013-11-26 11:23:00,
2013-11-26 04:33:00,12.0,8.0,-100.00,NNE,13,6.0,9.0,83,0.00,,,0.15,0.000000,,2013-11-26 11:33:00,
2013-11-26 05:12:00,16.0,10.0,-100.00,NNW,338,3.0,7.0,76,0.00,,,0.15,0.000000,,2013-11-26 12:12:00,
2013-11-26 05:22:00,16.0,10.0,-100.00,NNW,338,3.0,7.0,76,0.00,,,0.15,0.000000,,2013-11-26 12:22:00,
2013-11-26 05:32:00,16.0,10.0,-100.00,NNW,338,3.0,7.0,76,0.00,,,0.15,0.000000,,2013-11-26 12:32:00,
2013-11-26 06:11:00,13.0,7.0,-100.00,NNW,341,6.0,9.0,76,0.00,,,0.15,0.000000,,2013-11-26 13:11:00,
2013-11-26 06:22:00,13.0,7.0,-100.00,NNW,341,6.0,9.0,76,0.00,,,0.15,0.000000,,2013-11-26 13:22:00,
2013-11-26 06:32:00,13.0,7.0,-100.00,NNW,341,6.0,9.0,76,0.00,,,0.15,0.000000,,2013-11-26 13:32:00,
2013-11-26 07:12:00,17.0,10.0,-100.00,North,353,7.0,12.0,75,0.00,,,0.15,0.000000,,2013-11-26 14:12:00,
2013-11-26 07:22:00,17.0,10.0,-100.00,North,353,7.0,12.0,75,0.00,,,0.15,0.000000,,2013-11-26 14:22:00,
2013-11-26 07:32:00,17.0,10.0,-100.00,North,353,7.0,12.0,75,0.00,,,0.15,0.000000,,2013-11-26 14:32:00,
2013-11-26 08:12:00,21.0,11.0,-100.00,North,8,9.0,15.0,66,0.00,,,0.15,19.000000,,2013-11-26 15:12:00,
2013-11-26 08:22:00,21.0,11.0,-100.00,North,8,9.0,15.0,66,0.00,,,0.15,19.000000,,2013-11-26 15:22:00,
2013-11-26 08:33:00,21.0,11.0,-100.00,North,8,9.0,15.0,66,0.00,,,0.15,19.000000,,2013-11-26 15:33:00,
2013-11-26 09:23:00,27.0,14.0,-100.00,North,9,10.0,15.0,58,0.00,,,0.15,178.000000,,2013-11-26 16:23:00,
2013-11-26 09:34:00,27.0,14.0,-100.00,North,9,10.0,15.0,58,0.00,,,0.15,178.000000,,2013-11-26 16:34:00,
2013-11-26 10:13:00,25.0,13.0,-100.00,SSE,152,7.0,14.0,61,-99.99,,,0.15,357.000000,,2013-11-26 17:13:00,
2013-11-26 10:22:00,25.0,13.0,-100.00,SSE,152,7.0,14.0,61,-99.99,,,0.15,357.000000,,2013-11-26 17:22:00,
2013-11-26 10:33:00,25.0,13.0,-100.00,SSE,152,7.0,14.0,61,-99.99,,,0.15,357.000000,,2013-11-26 17:33:00,
2013-11-26 11:11:00,26.0,14.0,-100.00,SSW,195,5.0,13.0,60,0.00,,,0.11,503.000000,,2013-11-26 18:11:00,
2013-11-26 11:22:00,26.0,14.0,-100.00,SSW,195,5.0,13.0,60,0.00,,,0.11,503.000000,,2013-11-26 18:22:00,
2013-11-26 11:32:00,26.0,14.0,-100.00,SSW,195,5.0,13.0,60,0.00,,,0.11,503.000000,,2013-11-26 18:32:00,
2013-11-26 12:11:00,28.0,15.0,-100.00,South,174,5.0,7.0,58,0.00,,,0.10,601.000000,,2013-11-26 19:11:00,
2013-11-26 12:22:00,28.0,15.0,-100.00,South,174,5.0,7.0,58,0.00,,,0.10,601.000000,,2013-11-26 19:22:00,
2013-11-26 12:32:00,28.0,15.0,-100.00,South,174,5.0,7.0,58,0.00,,,0.10,601.000000,,2013-11-26 19:32:00,
2013-11-26 13:12:00,24.0,14.0,-100.00,South,179,5.0,9.0,65,0.00,,,0.05,636.000000,,2013-11-26 20:12:00,
2013-11-26 13:22:00,24.0,14.0,-100.00,South,179,5.0,9.0,65,0.00,,,0.05,636.000000,,2013-11-26 20:22:00,
2013-11-26 13:32:00,24.0,14.0,-100.00,South,179,5.0,9.0,65,0.00,,,0.05,636.000000,,2013-11-26 20:32:00,
2013-11-26 14:11:00,24.0,14.0,-100.00,South,173,6.0,8.0,65,0.00,,,0.00,606.000000,,2013-11-26 21:11:00,
2013-11-26 14:22:00,24.0,14.0,-100.00,South,173,6.0,8.0,65,0.00,,,0.00,606.000000,,2013-11-26 21:22:00,
2013-11-26 14:34:00,24.0,14.0,-100.00,South,173,6.0,8.0,65,0.00,,,0.00,606.000000,,2013-11-26 21:34:00,
2013-11-26 15:23:00,24.0,15.0,-100.00,South,187,4.0,7.0,67,0.00,,,0.00,513.000000,,2013-11-26 22:23:00,
2013-11-26 15:33:00,24.0,15.0,-100.00,South,187,4.0,7.0,67,0.00,,,0.00,513.000000,,2013-11-26 22:33:00,
2013-11-26 16:12:00,29.0,16.0,-100.00,NW,307,1.0,4.0,57,0.00,,,0.00,363.000000,,2013-11-26 23:12:00,
2013-11-26 16:22:00,29.0,16.0,-100.00,NW,307,1.0,4.0,57,0.00,,,0.00,363.000000,,2013-11-26 23:22:00,
2013-11-26 16:33:00,29.0,16.0,-100.00,NW,307,1.0,4.0,57,0.00,,,0.00,363.000000,,2013-11-26 23:33:00,
2013-11-26 23:22:00,5.0,0.0,-100.00,North,352,5.0,8.0,80,0.00,,,0.00,0.000000,,2013-11-27 06:22:00,
2013-11-26 23:32:00,5.0,0.0,-100.00,North,352,5.0,8.0,80,0.00,,,0.00,0.000000,,2013-11-27 06:32:00,